TimeCST,TemperatureF,Dew PointF,Humidity,Sea Level PressureIn,VisibilityMPH,Wind Direction,Wind SpeedMPH,Gust SpeedMPH,PrecipitationIn,Events,Conditions,WindDirDegrees,DateUTC
12:15 AM,66.2,64.4,94,30.03,10.0,SSE,4.6,-,N/A,,Clear,150,2012-12-04 06:15:00
12:35 AM,66.2,64.4,94,30.03,10.0,SSE,4.6,-,N/A,,Partly Cloudy,150,2012-12-04 06:35:00
12:55 AM,68.0,64.4,88,30.03,10.0,SSE,4.6,-,N/A,,Scattered Clouds,160,2012-12-04 06:55:00
1:15 AM,68.0,64.4,88,30.03,10.0,SSE,4.6,-,N/A,,Partly Cloudy,160,2012-12-04 07:15:00
1:35 AM,68.0,64.4,88,30.04,10.0,South,4.6,-,N/A,,Clear,170,2012-12-04 07:35:00
1:55 AM,68.0,64.4,88,30.04,10.0,South,6.9,-,N/A,,Clear,170,2012-12-04 07:55:00
2:15 AM,66.2,64.4,94,30.04,10.0,SSE,6.9,-,N/A,,Clear,160,2012-12-04 08:15:00
2:55 AM,68.0,64.4,88,30.05,10.0,SSW,5.8,-,N/A,,Mostly Cloudy,200,2012-12-04 08:55:00
3:15 AM,69.8,64.4,83,30.04,10.0,South,6.9,-,N/A,,Overcast,190,2012-12-04 09:15:00
3:35 AM,69.8,64.4,83,30.04,10.0,South,6.9,-,N/A,,Overcast,170,2012-12-04 09:35:00
4:15 AM,69.8,64.4,83,30.04,10.0,South,5.8,-,N/A,,Mostly Cloudy,190,2012-12-04 10:15:00
4:35 AM,69.8,64.4,83,30.04,10.0,South,5.8,-,N/A,,Partly Cloudy,190,2012-12-04 10:35:00
4:55 AM,68.0,64.4,88,30.03,10.0,South,6.9,-,N/A,,Partly Cloudy,190,2012-12-04 10:55:00
5:15 AM,69.8,64.4,83,30.04,9.0,South,5.8,-,N/A,,Mostly Cloudy,190,2012-12-04 11:15:00
5:35 AM,69.8,64.4,83,30.05,10.0,South,6.9,-,N/A,,Overcast,190,2012-12-04 11:35:00
5:55 AM,69.8,64.4,83,30.05,10.0,South,11.5,17.3,N/A,,Mostly Cloudy,190,2012-12-04 11:55:00
6:15 AM,69.8,66.2,88,30.05,9.0,South,10.4,-,N/A,,Mostly Cloudy,190,2012-12-04 12:15:00
6:35 AM,69.8,66.2,88,30.06,10.0,South,8.1,-,N/A,,Overcast,190,2012-12-04 12:35:00
6:55 AM,69.8,66.2,88,30.07,9.0,SSW,8.1,-,N/A,,Overcast,200,2012-12-04 12:55:00
7:15 AM,69.8,66.2,88,30.07,7.0,South,9.2,-,N/A,,Overcast,190,2012-12-04 13:15:00
7:35 AM,69.8,66.2,88,30.08,7.0,SSW,8.1,-,N/A,,Overcast,200,2012-12-04 13:35:00
7:55 AM,69.8,66.2,88,30.09,7.0,SW,6.9,-,N/A,,Overcast,220,2012-12-04 13:55:00
8:15 AM,69.8,66.2,88,30.10,7.0,SSW,6.9,-,N/A,,Overcast,210,2012-12-04 14:15:00
8:35 AM,69.8,66.2,88,30.10,7.0,SW,8.1,-,N/A,,Overcast,230,2012-12-04 14:35:00
8:55 AM,69.8,66.2,88,30.10,7.0,SW,8.1,-,N/A,,Overcast,220,2012-12-04 14:55:00
9:15 AM,69.8,66.2,88,30.11,7.0,SW,9.2,-,N/A,,Overcast,220,2012-12-04 15:15:00
9:35 AM,69.8,66.2,88,30.12,8.0,SW,4.6,-,N/A,,Overcast,220,2012-12-04 15:35:00
9:55 AM,69.8,64.4,83,30.13,8.0,WSW,6.9,-,N/A,,Overcast,240,2012-12-04 15:55:00
10:15 AM,71.6,64.4,78,30.14,7.0,WSW,6.9,-,N/A,,Overcast,240,2012-12-04 16:15:00
10:35 AM,71.6,64.4,78,30.14,9.0,WSW,9.2,-,N/A,,Mostly Cloudy,250,2012-12-04 16:35:00
10:55 AM,71.6,64.4,78,30.14,9.0,WNW,5.8,-,N/A,,Mostly Cloudy,290,2012-12-04 16:55:00
11:15 AM,71.6,62.6,73,30.14,9.0,West,8.1,-,N/A,,Mostly Cloudy,280,2012-12-04 17:15:00
11:35 AM,71.6,62.6,73,30.14,9.0,WSW,5.8,-,N/A,,Mostly Cloudy,250,2012-12-04 17:35:00
11:55 AM,71.6,62.6,73,30.13,9.0,West,8.1,-,N/A,,Scattered Clouds,260,2012-12-04 17:55:00
12:15 PM,71.6,60.8,69,30.12,8.0,WNW,9.2,-,N/A,,Partly Cloudy,290,2012-12-04 18:15:00
12:35 PM,71.6,60.8,69,30.12,9.0,West,6.9,-,N/A,,Clear,260,2012-12-04 18:35:00
12:55 PM,71.6,60.8,69,30.11,9.0,WSW,4.6,-,N/A,,Partly Cloudy,250,2012-12-04 18:55:00
1:15 PM,73.4,60.8,65,30.11,9.0,West,3.5,-,N/A,,Partly Cloudy,280,2012-12-04 19:15:00
1:35 PM,71.6,60.8,69,30.11,9.0,NW,6.9,-,N/A,,Mostly Cloudy,320,2012-12-04 19:35:00
1:55 PM,73.4,59.0,61,30.11,9.0,Calm,Calm,-,N/A,,Mostly Cloudy,0,2012-12-04 19:55:00
2:15 PM,73.4,57.2,57,30.11,10.0,North,4.6,-,N/A,,Scattered Clouds,360,2012-12-04 20:15:00
2:35 PM,73.4,57.2,57,30.11,9.0,NNW,10.4,-,N/A,,Scattered Clouds,330,2012-12-04 20:35:00
2:55 PM,73.4,57.2,57,30.11,10.0,NW,13.8,18.4,N/A,,Partly Cloudy,320,2012-12-04 20:55:00
3:15 PM,73.4,55.4,53,30.11,9.0,NNW,13.8,-,N/A,,Clear,340,2012-12-04 21:15:00
3:35 PM,71.6,53.6,53,30.12,10.0,NW,16.1,-,N/A,,Clear,320,2012-12-04 21:35:00
3:55 PM,71.6,53.6,53,30.12,10.0,NNW,11.5,16.1,N/A,,Clear,330,2012-12-04 21:55:00
4:15 PM,71.6,51.8,50,30.13,10.0,NNW,8.1,-,N/A,,Clear,330,2012-12-04 22:15:00
4:35 PM,69.8,51.8,53,30.13,10.0,NW,4.6,-,N/A,,Clear,320,2012-12-04 22:35:00
4:55 PM,69.8,50.0,49,30.13,10.0,NNW,9.2,-,N/A,,Clear,330,2012-12-04 22:55:00
5:15 PM,68.0,48.2,49,30.13,10.0,NNW,6.9,-,N/A,,Clear,330,2012-12-04 23:15:00
5:35 PM,66.2,46.4,49,30.14,10.0,NNW,6.9,-,N/A,,Clear,330,2012-12-04 23:35:00
5:55 PM,66.2,46.4,49,30.15,10.0,NW,8.1,-,N/A,,Clear,320,2012-12-04 23:55:00
6:15 PM,66.2,44.6,46,30.16,10.0,NNW,8.1,-,N/A,,Clear,330,2012-12-05 00:15:00
6:35 PM,64.4,44.6,49,30.17,10.0,NNW,9.2,-,N/A,,Clear,330,2012-12-05 00:35:00
6:55 PM,64.4,42.8,45,30.17,10.0,NNW,10.4,-,N/A,,Clear,330,2012-12-05 00:55:00
7:15 PM,64.4,39.2,40,30.18,10.0,NNW,8.1,-,N/A,,Clear,340,2012-12-05 01:15:00
7:35 PM,62.6,37.4,39,30.19,10.0,NNW,9.2,-,N/A,,Clear,330,2012-12-05 01:35:00
7:55 PM,62.6,33.8,34,30.20,10.0,North,9.2,-,N/A,,Clear,350,2012-12-05 01:55:00
8:15 PM,62.6,32.0,32,30.20,10.0,North,9.2,-,N/A,,Clear,350,2012-12-05 02:15:00
8:35 PM,60.8,32.0,34,30.21,10.0,North,5.8,-,N/A,,Clear,10,2012-12-05 02:35:00
8:55 PM,60.8,32.0,34,30.21,10.0,North,8.1,-,N/A,,Clear,360,2012-12-05 02:55:00
9:15 PM,60.8,32.0,34,30.21,10.0,North,6.9,-,N/A,,Clear,10,2012-12-05 03:15:00
9:35 PM,59.0,32.0,36,30.22,10.0,North,4.6,-,N/A,,Clear,10,2012-12-05 03:35:00
9:55 PM,57.2,32.0,38,30.23,10.0,North,4.6,-,N/A,,Clear,10,2012-12-05 03:55:00
10:15 PM,57.2,32.0,38,30.24,10.0,North,5.8,-,N/A,,Clear,10,2012-12-05 04:15:00
10:35 PM,55.4,33.8,44,30.24,10.0,NNW,5.8,-,N/A,,Clear,340,2012-12-05 04:35:00
10:55 PM,53.6,33.8,47,30.24,10.0,NNW,5.8,-,N/A,,Clear,330,2012-12-05 04:55:00
11:15 PM,53.6,33.8,47,30.24,10.0,North,4.6,-,N/A,,Clear,350,2012-12-05 05:15:00
11:35 PM,55.4,33.8,44,30.25,10.0,NNW,6.9,-,N/A,,Mostly Cloudy,340,2012-12-05 05:35:00
11:55 PM,57.2,33.8,41,30.25,10.0,North,8.1,-,N/A,,Overcast,350,2012-12-05 05:55:00